Location: Melbourne
(37.8170°S, 144.9670°E)
Time: 23:07:11
(UTC+10:00)

Daily predictions for brighter satellites

Satellite Brightness Start Highest point End
(mag) Time Altitude Azimuth Time Altitude Azimuth Time Altitude Azimuth
RESURS DK-1 3.6 17:45:34 10° SW 17:49:39 49° WNW 17:53:41 10° N
Cosmos 2219 Rocket 3.9 17:47:55 10° NE 17:50:46 14° E 17:53:38 10° ESE
IRS-1A Rocket 4.4 17:46:14 10° SSE 17:52:03 67° ENE 17:57:39 10° N
CSL-04 Rocket 3.7 17:47:36 10° SSE 17:52:59 88° W 17:58:19 10° NNW
IDEFIX/ARIANE 42P 4.1 17:51:03 10° SE 17:54:26 17° E 17:57:46 10° NE
Cosmos 2322 3.7 17:50:35 10° NNW 17:56:13 72° ENE 18:01:55 10° SSE
Cosmos 1844 Rocket 4.0 17:52:48 10° S 17:56:47 19° SE 18:00:44 10° E
Cosmos 923 Rocket 4.1 17:52:36 10° NNW 17:57:55 80° ENE 18:03:19 10° SSE
NOSS 2-2 (E) 4.3 17:53:21 10° SW 17:59:49 81° WNW 18:04:43 10° NNE
Lacrosse 5 3.8 18:00:08 10° S 18:02:38 13° SSE 18:05:07 10° SE
Meteor 1-28 Rocket 3.5 17:59:30 10° NNE 18:03:11 46° ESE 18:06:56 10° S
DELTA 2 R/B (1) 4.4 17:59:18 10° NW 18:04:28 39° NNE 18:09:35 10° E
Cosmos 1908 3.5 18:03:20 10° NNE 18:07:07 49° E 18:10:57 10° SSE
Cosmos 2263 Rocket 2.5 18:06:03 10° SSW 18:11:47 75° WNW 18:17:28 10° NNE
YAOGAN 1 2.9 18:10:57 10° SSE 18:15:12 45° E 18:19:23 10° N
Cosmos 1515 Rocket 3.6 18:12:33 10° N 18:16:56 86° W 18:21:25 10° S
Helios 1B rocket 2.6 18:14:09 10° N 18:18:19 80° WNW 18:22:32 10° SSW
Cosmos 2228 Rocket 4.2 18:14:26 10° NNW 18:18:51 48° W 18:23:17 10° S
Meteor 1-29 2.9 18:15:29 10° NNE 18:18:55 82° ESE 18:22:26 10° S
Cosmos 1745 Rocket 4.0 18:13:37 10° S 18:19:56 65° E 18:26:05 10° NNE
Cosmos 1553 Rocket 4.0 18:15:55 10° N 18:22:00 87° E 18:28:13 10° S
Cosmos 2084 4.0 18:21:07 10° SSW 18:25:33 41° SE 18:29:43 10° ENE
Cosmos 1151 Rocket 3.0 18:22:05 10° N 18:26:26 69° E 18:30:50 10° SSE
SJ-12 4.1 18:23:56 10° SSE 18:28:03 52° E 18:32:05 10° N
BREEZE-M DEB (TANK) 3.9 18:17:24 10° SW 18:30:05 78° SSE 18:33:36 12° ENE
Cosmos 1437 Rocket 4.0 18:28:22 10° NNW 18:32:23 47° WSW 18:36:25 10° S
SMAP 3.0 18:28:56 10° SSE 18:33:39 65° E 18:38:18 10° N
Cosmos 921 Rocket 3.4 18:30:52 10° SSW 18:35:04 66° WNW 18:39:14 10° N
Cosmos 1933 Rocket 4.4 18:36:41 10° SSW 18:41:08 56° W 18:45:31 10° N
GPS 2-04 Rocket1 3.4 18:40:55 10° W 18:45:01 55° N 18:47:42 21° ENE
Lacrosse 5 rocket 3.0 18:42:08 10° SSW 18:45:41 21° SSE 18:46:04 21° SE
MONITOR-E 4.4 18:45:25 27° SE 18:46:54 51° E 18:50:05 10° N
Cosmos 2360 Rocket 3.5 18:44:13 10° NW 18:49:31 39° WSW 18:54:52 10° S
Cosmos 1624 Rocket 4.1 18:46:18 10° S 18:51:26 51° ESE 18:56:30 10° NE
AQUARIUS 4.4 18:48:16 10° S 18:52:50 75° WSW 18:57:22 10° NNW
Cosmos 1980 4.3 18:48:13 10° NNE 18:53:20 36° ENE 18:55:14 28° ESE
Cosmos 1726 2.5 18:50:54 10° NNE 18:54:24 40° E 18:54:27 40° E
Cosmos 1300 2.7 18:51:41 10° N 18:55:28 57° E 18:57:18 28° SSE
Meteor 1-4 Rocket 3.6 18:53:54 10° NNE 18:56:02 28° NE 18:56:02 28° NE
NOSS 0 Rocket 4.2 18:52:37 10° N 18:58:31 46° ENE 19:01:36 27° SE
Cosmos 2237 Rocket 2.7 18:53:45 10° N 18:58:52 36° ENE 19:00:09 32° ESE
PAYLOAD A 4.4 18:56:36 10° S 19:01:38 61° WSW 19:06:25 10° NNW
Cosmos 1707 Rocket 3.5 19:00:29 10° N 19:04:55 67° E 19:07:48 22° SSE
CZ-4 R/B 3.5 19:05:20 10° SSW 19:08:37 25° WSW 19:11:54 10° NW
Abrixas 4.3 19:06:52 10° WSW 19:09:41 31° NW 19:10:49 23° N
COSMOS 2441 4.5 19:08:46 42° ESE 19:09:51 50° E 19:14:30 10° N
Cosmos 2333 Rocket 2.3 19:05:05 10° N 19:10:38 54° ENE 19:12:34 37° SE
CZ-2C R/B 2.5 19:09:26 10° S 19:14:06 68° WSW 19:18:39 10° NNW
Cosmos 1484 Rocket 3.2 19:21:55 51° NNE 19:21:55 51° NNE 19:25:05 10° N
Cosmos 1271 Rocket 3.2 19:17:56 10° N 19:21:00 50° NNE 19:21:00 50° NNE
MSX 3.7 19:18:29 15° SSE 19:23:24 75° ENE 19:29:10 10° N
COSMOS 2428 3.8 19:18:24 10° NW 19:23:52 44° WSW 19:29:21 10° S
Cosmos 2278 Rocket 2.6 19:20:03 10° S 19:24:40 43° SE 19:24:40 43° SE
Cosmos 1844 3.5 19:21:54 10° SSW 19:27:34 75° ESE 19:29:50 37° NE
Meteor 2-3 Rocket 3.6 19:23:42 10° S 19:29:35 81° E 19:35:21 10° N
Cosmos 2315 Rocket 4.2 19:25:29 10° NNW 19:31:50 74° W 19:38:19 10° S
Cosmos 2219 Rocket 2.4 19:28:20 10° NNW 19:34:00 71° WSW 19:36:50 31° S
IDEFIX/ARIANE 42P 3.2 19:29:08 10° S 19:34:20 55° WSW 19:39:30 10° NNW
ATLAS 3B R/B 4.0 19:33:50 10° N 19:36:09 20° NNE 19:36:09 20° NNE
Cosmos 1844 Rocket 3.1 19:35:30 10° SSW 19:41:08 63° WNW 19:46:44 10° N
Lacrosse 5 3.1 19:41:48 10° SSW 19:44:48 32° S 19:44:48 32° S
DELTA 2 R/B (1) 3.5 19:45:04 10° WNW 19:50:22 80° W 19:50:22 80° W
Lacrosse 4 Rocket 3.4 19:59:05 10° NNW 20:00:54 24° NW 20:00:54 24° NW
COSMOS 2455 3.9 20:03:11 10° NNW 20:06:27 34° N 20:06:27 34° N
SL-16 R/B 4.1 20:05:28 10° N 20:06:51 18° N 20:06:51 18° N
Lacrosse 5 rocket 4.1 20:20:49 10° SW 20:21:51 16° SW 20:21:51 16° SW
Cosmos 2237 Rocket 3.9 20:38:02 10° WNW 20:42:04 28° WSW 20:42:04 28° WSW
Cosmos 2333 Rocket 4.4 20:50:55 10° WNW 20:54:39 21° WSW 20:54:39 21° WSW
